Moose, Wyoming, United States (83012)
Lat: 43.66N, Lon: 110.72W
Wx Zone: WYZ013
Local Info
Past Weather Observations for Wednesday, September 28, 2016

NOTE: This archive is for the closest National Weather Service station to Moose. Information may differ from the station used for current weather conditions.

Click here for Long-term Archive

Time Weather Temperature Dewpoint Humidity Pressure Winds Precip Visibility
23:55
Clear
45°F / 7°C 37°F / 3°C 76% 30.33 in
(1027 mb)
NE 4.6 mph
(NE 7 kph)
- 10SM
23:35
Clear
46°F / 8°C 39°F / 4°C 76% 30.33 in
(1027 mb)
NNE 6.9 mph
(NNE 11 kph)
- 10SM
23:15
Clear
48°F / 9°C 39°F / 4°C 71% 30.33 in
(1027 mb)
Calm - 10SM
22:55
Clear
48°F / 9°C 37°F / 3°C 66% 30.3 in
(1026 mb)
Calm - 10SM
22:35
Clear
50°F / 10°C 37°F / 3°C 62% 30.33 in
(1027 mb)
Calm - 10SM
22:15
Clear
48°F / 9°C 37°F / 3°C 66% 30.3 in
(1026 mb)
NE 3.5 mph
(NE 6 kph)
- 10SM
21:55
Clear
48°F / 9°C 39°F / 4°C 71% 30.3 in
(1026 mb)
NNE 8.1 mph
(NNE 13 kph)
- 10SM
21:35
Clear
48°F / 9°C 37°F / 3°C 66% 30.3 in
(1026 mb)
N 5.8 mph
(N 9 kph)
- 10SM
21:15
Clear
48°F / 9°C 39°F / 4°C 71% 30.3 in
(1026 mb)
N 9.2 mph
(N 15 kph)
- 10SM
20:55
Clear
48°F / 9°C 39°F / 4°C 71% 30.3 in
(1026 mb)
N 9.2 mph
(N 15 kph)
- 10SM
20:35
Clear
48°F / 9°C 39°F / 4°C 71% 30.3 in
(1026 mb)
N 5.8 mph
(N 9 kph)
- 10SM
20:15
Clear
50°F / 10°C 37°F / 3°C 62% 30.3 in
(1026 mb)
N 10.4 mph
(N 17 kph)
- 10SM
19:55
Clear
50°F / 10°C 37°F / 3°C 62% 30.27 in
(1025 mb)
NNE 9.2 mph
(NNE 15 kph)
- 10SM
18:45
Clear
63°F / 17°C 36°F / 2°C 37% 30.27 in
(1025 mb)
Calm - 10SM
17:50
Clear
66°F / 19°C 36°F / 2°C 32% 30.27 in
(1025 mb)
Calm - 10SM
15:45
Clear
75°F / 24°C 32°F / 0°C 21% 30.27 in
(1025 mb)
NNW 4.6 mph
(NNW 7 kph)
- 10SM
14:45
Clear
75°F / 24°C 32°F / 0°C 21% 30.27 in
(1025 mb)
Calm - 10SM
13:45
Clear
73°F / 23°C 34°F / 1°C 23% 30.3 in
(1026 mb)
S 5.8 mph
(S 9 kph)
- 10SM
12:51
Clear
72°F / 22°C 36°F / 2°C 27% 30.33 in
(1027 mb)
Calm - 10SM
11:45
Clear
64°F / 18°C 37°F / 3°C 37% 30.33 in
(1027 mb)
S 5.8 mph
(S 9 kph)
- 10SM
10:45
Clear
61°F / 16°C 39°F / 4°C 45% 30.36 in
(1028 mb)
Calm - 10SM
09:45
Clear
55°F / 13°C 37°F / 3°C 51% 30.36 in
(1028 mb)
SE 5.8 mph
(SE 9 kph)
- 10SM
08:45
Clear
48°F / 9°C 37°F / 3°C 66% 30.39 in
(1029 mb)
Calm - 10SM
07:51
Clear
34°F / 1°C 34°F / 1°C 100% 30.39 in
(1029 mb)
Calm - 10SM
05:47
Clear
36°F / 2°C 34°F / 1°C 93% 30.36 in
(1028 mb)
N 5.8 mph
(N 9 kph)
- 10SM
05:35
Clear
36°F / 2°C 34°F / 1°C 93% 30.36 in
(1028 mb)
Calm - 10SM
05:15
Clear
36°F / 2°C 36°F / 2°C 100% 30.36 in
(1028 mb)
Calm - 10SM
04:55
Clear
37°F / 3°C 36°F / 2°C 93% 30.36 in
(1028 mb)
Calm - 10SM
04:35
Clear
36°F / 2°C 34°F / 1°C 93% 30.36 in
(1028 mb)
Calm - 10SM
04:15
Clear
41°F / 5°C 36°F / 2°C 81% 30.36 in
(1028 mb)
Calm - 10SM
03:55
Clear
37°F / 3°C 36°F / 2°C 93% 30.33 in
(1027 mb)
Calm - 10SM
03:35
Clear
37°F / 3°C 36°F / 2°C 93% 30.33 in
(1027 mb)
NE 3.5 mph
(NE 6 kph)
- 10SM
03:15
Clear
36°F / 2°C 34°F / 1°C 93% 30.33 in
(1027 mb)
Calm - 10SM
02:55
Clear
37°F / 3°C 36°F / 2°C 93% 30.33 in
(1027 mb)
N 4.6 mph
(N 7 kph)
- 10SM
02:35
Clear
39°F / 4°C 36°F / 2°C 87% 30.33 in
(1027 mb)
N 3.5 mph
(N 6 kph)
- 10SM
02:15
Clear
39°F / 4°C 36°F / 2°C 87% 30.33 in
(1027 mb)
NNE 4.6 mph
(NNE 7 kph)
- 10SM
01:55
Clear
41°F / 5°C 36°F / 2°C 81% 30.33 in
(1027 mb)
N 5.8 mph
(N 9 kph)
- 10SM
01:35
Clear
41°F / 5°C 37°F / 3°C 87% 30.33 in
(1027 mb)
Calm - 10SM
01:15
Clear
43°F / 6°C 37°F / 3°C 81% 30.33 in
(1027 mb)
NNW 4.6 mph
(NNW 7 kph)
- 10SM
00:55
Clear
43°F / 6°C 37°F / 3°C 81% 30.33 in
(1027 mb)
Calm - 10SM
00:35
Clear
43°F / 6°C 37°F / 3°C 81% 30.33 in
(1027 mb)
NNW 4.6 mph
(NNW 7 kph)
- 10SM
00:15
Clear
43°F / 6°C 37°F / 3°C 81% 30.33 in
(1027 mb)
NNE 3.5 mph
(NNE 6 kph)
- 10SM
Time Weather Temperature Dewpoint Humidity Pressure Winds Precip Visibility


Weather for websites

WeatherForYou.com, LLC is not responsible for any damages or problems caused by this service. Current weather conditions are obtained from the closest station including government and personal stations which may have varying degrees of accuracy. Weather forecasts are derived from the NOAA NDFD. Like all things, this site belongs to Jesus Christ... He just trusts us to maintain it. If you have any questions or comments email webmaster@weatherforyou.com

Copyright © 2016, WeatherForYou.com LLC. All rights reserved.